Weather History for Troy, MI

Change the Weather History Date:

Thursday, June 13, 2013

  Actual Average (KDET) Record (KDET)
Temperature  
Mean Temperature 68 °F -  
Max Temperature 76 °F 79 °F 96 °F (1956)
Min Temperature 61 °F 60 °F 45 °F (1985)
Cooling Degree Days 4    
Growing Degree Days 18 (Base 50)    
Moisture  
Dew Point 57 °F    
Average Humidity 70    
Maximum Humidity 100    
Minimum Humidity 40    
Precipitation  
Precipitation 0.00 in - - ()
Sea Level Pressure  
Sea Level Pressure 29.77 in    
Wind  
Wind Speed 8 mph (North)    
Max Wind Speed 16 mph    
Max Gust Speed 26 mph    
Visibility 8 miles    
Events Rain    
Averages and records for this station are not official NWS values.
T = Trace of Precipitation, MM = Missing Value Source: NWS Daily Summary

Daily Weather History Graph

Daily Weather History Graph

Search for Another Location

Airport:

Trip Planner

Search our weather history database for the weather conditions in past years. The results will help you decide how hot, cold, wet, or windy it might be!

Date:

Astronomy

Jun. 13, 2013 Rise Set
Actual Time 5:54 AM EDT 9:11 PM EDT
Civil Twilight 5:19 AM EDT 9:46 PM EDT
Nautical Twilight 4:34 AM EDT 10:31 PM EDT
Astronomical Twilight 3:39 AM EDT 11:26 PM EDT
Moon 10:35 AM EDT (6/13) No Moon Set
Length of Visible Light 16h 26m
Length of Day
15h 16m
Waxing Crescent, 21% of the Moon is Illuminated
Jun 13
Waxing Crescent
Jun 16
First Quarter
Jun 23
Full
Jun 30
Last Quarter
Jul 8
New

Hourly Weather History & Observations

Time (EDT) Temp. Dew Point Humidity Pressure Visibility Wind Dir Wind Speed Gust Speed Precip Events Conditions
12:14 AM 65.3 °F 64.0 °F 96% 29.71 in 1.0 mi Calm Calm - N/A Rain Heavy Rain
12:35 AM 64.4 °F 63.5 °F 97% 29.69 in 1.5 mi SE 6.9 mph - N/A Rain Rain
12:55 AM 64.0 °F 63.5 °F 98% 29.68 in 1.8 mi ENE 12.7 mph - N/A Rain Heavy Rain
1:14 AM 63.7 °F 63.0 °F 97% 29.70 in 3.0 mi NNW 3.5 mph - N/A Rain Light Rain
1:35 AM 63.5 °F 62.8 °F 97% 29.68 in 1.5 mi NNE 8.1 mph - N/A Rain Heavy Rain
1:55 AM 63.5 °F 63.0 °F 98% 29.66 in 1.8 mi NE 8.1 mph - N/A Rain Rain
2:15 AM 63.1 °F 62.8 °F 99% 29.65 in 1.5 mi East 4.6 mph - N/A Rain Heavy Rain
2:35 AM 63.0 °F 62.6 °F 99% 29.63 in 1.5 mi NE 6.9 mph - N/A Rain Heavy Rain
2:55 AM 62.8 °F 62.6 °F 99% 29.62 in 1.2 mi ENE 5.8 mph - N/A Rain Heavy Rain
3:15 AM 62.6 °F 62.2 °F 99% 29.62 in 1.5 mi East 3.5 mph - N/A Rain Rain
3:35 AM 62.6 °F 62.4 °F 99% 29.61 in 1.5 mi ENE 4.6 mph - N/A Rain Heavy Rain
3:55 AM 62.6 °F 62.4 °F 99% 29.61 in 1.8 mi NE 11.5 mph - N/A Rain Rain
4:15 AM 62.2 °F 62.1 °F 99% 29.60 in 1.8 mi NNE 10.4 mph 16.1 mph N/A Rain Rain
4:34 AM 62.6 °F 62.6 °F 100% 29.60 in 2.0 mi NNE 6.9 mph - N/A Rain Rain
4:55 AM 62.6 °F 62.6 °F 100% 29.60 in 2.0 mi NNE 9.2 mph - N/A Rain Rain
5:15 AM 62.6 °F 62.6 °F 100% 29.61 in 3.0 mi NNE 8.1 mph - N/A Rain Light Rain
5:34 AM 63.0 °F 62.8 °F 99% 29.63 in 3.0 mi North 8.1 mph - N/A Rain Rain
5:55 AM 63.1 °F 62.8 °F 99% 29.64 in 4.0 mi North 6.9 mph - N/A Rain Light Rain
6:15 AM 61.9 °F 59.4 °F 91% 29.65 in 10.0 mi North 10.4 mph 19.6 mph N/A Rain Light Rain
6:35 AM 61.0 °F 57.6 °F 88% 29.66 in 10.0 mi North 9.2 mph 17.3 mph N/A Rain Light Rain
6:55 AM 61.0 °F 57.4 °F 88% 29.68 in 10.0 mi North 6.9 mph - N/A Rain Light Rain
7:15 AM 61.7 °F 59.0 °F 91% 29.68 in 10.0 mi NNW 8.1 mph - N/A Rain Light Rain
7:31 AM 61.7 °F 59.0 °F 91% 29.69 in 7.0 mi NNW 5.8 mph - N/A Rain Light Rain
7:55 AM 61.9 °F 59.0 °F 90% 29.70 in 7.0 mi NNW 4.6 mph - N/A Rain Light Rain
8:15 AM 61.3 °F 58.1 °F 89% 29.70 in 10.0 mi North 5.8 mph - N/A   Light Drizzle
8:35 AM 61.7 °F 58.3 °F 89% 29.71 in 10.0 mi NNW 8.1 mph - N/A   Overcast
8:54 AM 62.6 °F 59.0 °F 88% 29.72 in 10.0 mi NNW 10.4 mph - N/A   Mostly Cloudy
9:15 AM 63.0 °F 59.5 °F 89% 29.73 in 10.0 mi NNW 8.1 mph - N/A   Mostly Cloudy
9:34 AM 63.7 °F 59.9 °F 87% 29.73 in 10.0 mi NW 6.9 mph - N/A   Mostly Cloudy
9:55 AM 65.3 °F 60.6 °F 85% 29.73 in 10.0 mi NNW 9.2 mph - N/A   Scattered Clouds
10:15 AM 66.2 °F 59.2 °F 78% 29.73 in 10.0 mi NNW 8.1 mph - N/A   Clear
10:35 AM 68.2 °F 58.1 °F 70% 29.73 in 10.0 mi North 9.2 mph - N/A   Clear
10:55 AM 70.2 °F 56.8 °F 63% 29.73 in 10.0 mi North 13.8 mph 18.4 mph N/A   Clear
11:15 AM 71.8 °F 57.2 °F 60% 29.75 in 10.0 mi North 12.7 mph 18.4 mph N/A   Clear
11:35 AM 72.3 °F 56.5 °F 57% 29.75 in 10.0 mi NNW 10.4 mph 17.3 mph N/A   Clear
11:55 AM 72.9 °F 56.1 °F 56% 29.77 in 10.0 mi NNW 9.2 mph 18.4 mph N/A   Scattered Clouds
12:15 PM 73.6 °F 54.9 °F 52% 29.77 in 10.0 mi NNW 12.7 mph 24.2 mph N/A   Clear
12:35 PM 73.4 °F 55.4 °F 53% 29.77 in 10.0 mi North 10.4 mph 18.4 mph N/A   Clear
12:54 PM 74.1 °F 55.9 °F 53% 29.78 in 10.0 mi NNW 12.7 mph 19.6 mph N/A   Clear
1:15 PM 74.3 °F 54.0 °F 49% 29.79 in 10.0 mi NNW 16.1 mph 20.7 mph N/A   Clear
1:35 PM 75.0 °F 55.8 °F 51% 29.79 in 10.0 mi North 11.5 mph 17.3 mph N/A   Clear
1:55 PM 75.6 °F 54.5 °F 48% 29.79 in 10.0 mi North 11.5 mph 19.6 mph N/A   Scattered Clouds
2:15 PM 76.6 °F 54.3 °F 46% 29.80 in 10.0 mi NNW 10.4 mph 24.2 mph N/A   Scattered Clouds
2:34 PM 74.3 °F 53.8 °F 49% 29.81 in 10.0 mi North 12.7 mph 23.0 mph N/A   Mostly Cloudy
2:55 PM 75.0 °F 54.3 °F 48% 29.82 in 10.0 mi North 10.4 mph 18.4 mph N/A   Scattered Clouds
3:15 PM 75.4 °F 54.5 °F 48% 29.82 in 10.0 mi North 11.5 mph 23.0 mph N/A   Scattered Clouds
3:35 PM 76.3 °F 54.3 °F 46% 29.83 in 10.0 mi NNW 16.1 mph - N/A   Mostly Cloudy
3:55 PM 75.6 °F 54.3 °F 48% 29.83 in 10.0 mi North 16.1 mph 25.3 mph N/A   Scattered Clouds
4:15 PM 75.7 °F 53.1 °F 45% 29.83 in 10.0 mi North 10.4 mph 24.2 mph N/A   Scattered Clouds
4:35 PM 76.6 °F 55.2 °F 47% 29.84 in 10.0 mi NNE 9.2 mph 19.6 mph N/A   Scattered Clouds
4:55 PM 75.2 °F 52.9 °F 46% 29.84 in 10.0 mi North 12.7 mph 21.9 mph N/A   Scattered Clouds
5:15 PM 76.5 °F 52.5 °F 43% 29.84 in 10.0 mi North 16.1 mph 21.9 mph N/A   Clear
5:35 PM 76.1 °F 52.3 °F 43% 29.84 in 10.0 mi North 11.5 mph 20.7 mph N/A   Clear
5:55 PM 76.1 °F 49.8 °F 40% 29.85 in 10.0 mi North 13.8 mph 25.3 mph N/A   Clear
6:14 PM 75.4 °F 50.7 °F 42% 29.85 in 10.0 mi North 15.0 mph 20.7 mph N/A   Clear
6:35 PM 75.2 °F 50.0 °F 41% 29.85 in 10.0 mi NNE 16.1 mph 26.5 mph N/A   Clear
6:55 PM 74.3 °F 50.2 °F 43% 29.86 in 10.0 mi North 10.4 mph 18.4 mph N/A   Scattered Clouds
7:15 PM 74.7 °F 50.9 °F 43% 29.86 in 10.0 mi NNW 10.4 mph 17.3 mph N/A   Scattered Clouds
7:35 PM 74.3 °F 51.6 °F 45% 29.88 in 10.0 mi North 6.9 mph 17.3 mph N/A   Scattered Clouds
7:54 PM 73.8 °F 51.8 °F 46% 29.88 in 10.0 mi North 9.2 mph 16.1 mph N/A   Scattered Clouds
8:15 PM 72.7 °F 52.5 °F 49% 29.89 in 10.0 mi North 8.1 mph - N/A   Clear
8:34 PM 72.0 °F 53.4 °F 52% 29.89 in 10.0 mi NNE 6.9 mph - N/A   Clear
8:55 PM 70.9 °F 53.6 °F 54% 29.90 in 10.0 mi North 6.9 mph - N/A   Clear
9:15 PM 70.2 °F 53.6 °F 56% 29.91 in 10.0 mi North 8.1 mph - N/A   Scattered Clouds
9:34 PM 69.8 °F 53.8 °F 57% 29.91 in 10.0 mi North 5.8 mph - N/A   Mostly Cloudy
9:55 PM 68.9 °F 54.0 °F 59% 29.92 in 10.0 mi North 8.1 mph - N/A   Scattered Clouds
10:15 PM 68.5 °F 53.2 °F 58% 29.93 in 10.0 mi North 8.1 mph - N/A   Scattered Clouds
10:35 PM 68.0 °F 52.5 °F 58% 29.94 in 10.0 mi North 8.1 mph - N/A   Scattered Clouds
10:55 PM 67.5 °F 52.7 °F 59% 29.94 in 10.0 mi North 3.5 mph - N/A   Mostly Cloudy
11:15 PM 67.1 °F 52.3 °F 59% 29.94 in 10.0 mi North 6.9 mph - N/A   Scattered Clouds
11:35 PM 66.7 °F 52.7 °F 61% 29.95 in 10.0 mi North 11.5 mph 19.6 mph N/A   Clear
11:55 PM 66.2 °F 52.7 °F 62% 29.95 in 10.0 mi North 10.4 mph - N/A   Clear